Greenville Downtown, SC

12:37 AM EST on November 25, 2017 (GMT -0500)
Greenville Downtown

Weather History for KGMU - July, 2013

Change the Weather History Date:

Thursday, July 4, 2013

  Actual Average Record
Temperature  
Mean Temperature 74 °F -  
Max Temperature 81 °F 86 °F 98 °F (1998)
Min Temperature 66 °F 68 °F 60 °F (1996)
Cooling Degree Days 8    
Growing Degree Days 24 (Base 50)    
Moisture  
Dew Point 68 °F    
Average Humidity 89    
Maximum Humidity 94    
Minimum Humidity 72    
Precipitation  
Precipitation 1.93 in - - ()
Sea Level Pressure  
Sea Level Pressure 30.20 in    
Wind  
Wind Speed 6 mph (NE)    
Max Wind Speed 12 mph    
Max Gust Speed 18 mph    
Visibility 7 miles    
Events Rain , Thunderstorm    
Averages and records for this station are not official NWS values.
T = Trace of Precipitation, MM = Missing Value Source: NWS Daily Summary

Daily Weather History Graph

Daily Weather History Graph

Search for Another Location

Airport or City:

Trip Planner

Search our weather history database for the weather conditions in past years. The results will help you decide how hot, cold, wet, or windy it might be!

Date:

Astronomy

Jul. 04, 2013 Rise Set
Actual Time 6:21 AM EDT 8:46 PM EDT
Civil Twilight 5:51 AM EDT 9:15 PM EDT
Nautical Twilight 5:15 AM EDT 9:52 PM EDT
Astronomical Twilight 4:35 AM EDT 10:31 PM EDT
Moon 3:33 AM EDT (7/4) 5:52 PM EDT (7/4)
Length of Visible Light 15h 24m
Length of Day
14h 25m
Waning Crescent, 11% of the Moon is Illuminated
Jul 4
Waning Crescent
Jul 8
New
Jul 15
First Quarter
Jul 22
Full
Jul 29
Last Quarter

Hourly Weather History & Observations

Time (EDT) Temp. Heat Index Dew Point Humidity Pressure Visibility Wind Dir Wind Speed Gust Speed Precip Events Conditions
12:53 AM 66.9 °F - 64.9 °F 93% 30.21 in 10.0 mi ENE 10.4 mph - 0.22 in Rain Light Rain
1:13 AM 66.2 °F - 64.4 °F 94% 30.23 in 10.0 mi NE 5.8 mph - 0.00 in Rain Light Rain
1:20 AM 66.2 °F - 64.4 °F 94% 30.22 in 10.0 mi NE 5.8 mph - 0.00 in   Overcast
1:40 AM 66.2 °F - 64.4 °F 94% 30.22 in 10.0 mi NNE 6.9 mph - 0.00 in   Overcast
1:53 AM 66.9 °F - 64.9 °F 93% 30.21 in 8.0 mi East 5.8 mph - 0.02 in Rain Light Rain
2:10 AM 66.2 °F - 64.4 °F 94% 30.22 in 2.5 mi NNE 6.9 mph - 0.11 in Rain Heavy Rain
2:35 AM 66.2 °F - 64.4 °F 94% 30.22 in 3.0 mi Calm Calm - 0.22 in Rain Rain
2:43 AM 66.2 °F - 64.4 °F 94% 30.23 in 2.5 mi North 3.5 mph - 0.26 in Rain , Thunderstorm Heavy Thunderstorms and Rain
2:53 AM 66.9 °F - 64.9 °F 93% 30.20 in 2.5 mi ENE 3.5 mph - 0.33 in Rain , Thunderstorm Heavy Thunderstorms and Rain
3:01 AM 66.2 °F - 64.4 °F 94% 30.23 in 3.0 mi East 5.8 mph - 0.04 in Rain Heavy Rain
3:09 AM 66.2 °F - 64.4 °F 94% 30.22 in 5.0 mi East 5.8 mph - 0.06 in Rain Heavy Rain
3:19 AM 66.2 °F - 64.4 °F 94% 30.21 in 4.0 mi ENE 5.8 mph - 0.11 in Rain , Thunderstorm Heavy Rain
3:38 AM 66.2 °F - 64.4 °F 94% 30.20 in 10.0 mi NE 6.9 mph - 0.14 in Rain Light Rain
3:53 AM 66.9 °F - 64.9 °F 93% 30.18 in 10.0 mi NNE 4.6 mph - 0.14 in   Mostly Cloudy
4:53 AM 66.9 °F - 64.9 °F 93% 30.18 in 10.0 mi NE 6.9 mph - 0.01 in   Overcast
5:26 AM 66.2 °F - 64.4 °F 94% 30.20 in 10.0 mi NE 4.6 mph - N/A   Overcast
5:51 AM 66.2 °F - 64.4 °F 94% 30.21 in 10.0 mi NNE 3.5 mph - N/A   Overcast
5:53 AM 66.9 °F - 64.9 °F 93% 30.19 in 10.0 mi NE 3.5 mph - N/A   Overcast
6:30 AM 66.2 °F - 64.4 °F 94% 30.22 in 10.0 mi ENE 6.9 mph - N/A   Overcast
6:53 AM 68.0 °F - 66.0 °F 93% 30.22 in 10.0 mi West 6.9 mph - N/A   Overcast
6:58 AM 68.0 °F - 66.2 °F 94% 30.24 in 2.5 mi NW 3.5 mph - 0.03 in Rain Heavy Rain
7:10 AM 68.0 °F - 66.2 °F 94% 30.24 in 10.0 mi NNE 3.5 mph - 0.03 in Rain Light Rain
7:26 AM 68.0 °F - 66.2 °F 94% 30.25 in 2.5 mi East 6.9 mph - 0.08 in Rain Heavy Rain
7:53 AM 66.9 °F - 64.9 °F 93% 30.23 in 2.0 mi NNE 4.6 mph - 0.29 in Rain Heavy Rain
8:03 AM 68.0 °F - 66.2 °F 94% 30.24 in 4.0 mi NNE 4.6 mph - 0.01 in Rain Light Rain
8:11 AM 68.0 °F - 66.2 °F 94% 30.25 in 10.0 mi NE 4.6 mph - 0.01 in   Overcast
8:24 AM 68.0 °F - 66.2 °F 94% 30.24 in 10.0 mi NNE 8.1 mph - 0.02 in   Overcast
8:33 AM 68.0 °F - 66.2 °F 94% 30.24 in 10.0 mi NE 5.8 mph - 0.02 in   Overcast
8:53 AM 69.1 °F - 66.0 °F 90% 30.23 in 10.0 mi NE 6.9 mph - 0.02 in Rain Light Rain
9:53 AM 70.0 °F - 66.9 °F 90% 30.22 in 8.0 mi NE 8.1 mph - 0.05 in Rain Light Rain
10:53 AM 72.0 °F - 70.0 °F 93% 30.22 in 10.0 mi East 6.9 mph - 0.00 in Rain Light Rain
11:53 AM 75.0 °F - 71.1 °F 87% 30.22 in 10.0 mi ENE 6.9 mph - 0.00 in   Overcast
12:12 PM 78.8 °F - 73.4 °F 83% 30.23 in 10.0 mi ENE 6.9 mph - N/A   Mostly Cloudy
12:15 PM 77.0 °F - 71.6 °F 83% 30.23 in 10.0 mi East 5.8 mph - N/A   Mostly Cloudy
12:53 PM 79.0 °F - 73.9 °F 84% 30.19 in 6.0 mi East 8.1 mph - 0.03 in Rain Light Rain
1:00 PM 78.8 °F - 73.4 °F 83% 30.21 in 10.0 mi SE 11.5 mph - 0.00 in   Mostly Cloudy
1:16 PM 78.8 °F - 73.4 °F 83% 30.21 in 9.0 mi SE 11.5 mph - 0.01 in Rain Light Rain
1:28 PM 77.0 °F - 73.4 °F 89% 30.19 in 1.8 mi SSW 6.9 mph - 0.11 in Rain Heavy Rain
1:32 PM 77.0 °F - 71.6 °F 83% 30.19 in 10.0 mi Variable 4.6 mph - 0.11 in Rain Heavy Rain
1:53 PM 79.0 °F - 72.0 °F 79% 30.17 in 10.0 mi SSE 6.9 mph - 0.11 in   Overcast
2:05 PM 80.6 °F 84.6 °F 71.6 °F 74% 30.20 in 10.0 mi SSE 10.4 mph - N/A Thunderstorm Overcast
2:32 PM 80.6 °F 84.6 °F 71.6 °F 74% 30.19 in 10.0 mi SSE 6.9 mph - N/A   Mostly Cloudy
2:53 PM 81.0 °F 84.9 °F 71.1 °F 72% 30.15 in 10.0 mi SSE 6.9 mph - N/A   Partly Cloudy
3:01 PM 80.6 °F 84.6 °F 71.6 °F 74% 30.18 in 10.0 mi South 5.8 mph - N/A Thunderstorm Partly Cloudy
3:26 PM 78.8 °F - 71.6 °F 78% 30.17 in 10.0 mi WSW 8.1 mph 18.4 mph 0.00 in Rain , Thunderstorm Light Thunderstorms and Rain
3:33 PM 78.8 °F - 69.8 °F 74% 30.17 in 10.0 mi West 5.8 mph 18.4 mph 0.00 in Thunderstorm Thunderstorm
3:50 PM 78.8 °F - 69.8 °F 74% 30.17 in 10.0 mi NW 3.5 mph - 0.00 in Thunderstorm Thunderstorm
3:53 PM 77.0 °F - 70.0 °F 79% 30.15 in 10.0 mi Calm Calm - 0.00 in Thunderstorm Mostly Cloudy
4:04 PM 75.2 °F - 69.8 °F 83% 30.17 in 1.8 mi West 10.4 mph 16.1 mph 0.09 in Rain , Thunderstorm Heavy Rain
4:10 PM 73.4 °F - 69.8 °F 88% 30.17 in 4.0 mi West 10.4 mph - 0.09 in Rain Light Rain
4:20 PM 73.4 °F - 69.8 °F 88% 30.17 in 10.0 mi WNW 4.6 mph - 0.09 in Rain , Thunderstorm Light Rain
4:35 PM 73.4 °F - 69.8 °F 88% 30.16 in 10.0 mi WNW 6.9 mph - 0.09 in Rain Light Rain
4:53 PM 75.9 °F - 71.1 °F 85% 30.16 in 10.0 mi NNE 4.6 mph - 0.09 in Thunderstorm Scattered Clouds
5:04 PM 75.2 °F - 69.8 °F 83% 30.18 in 10.0 mi North 4.6 mph - N/A   Mostly Cloudy
5:38 PM 75.2 °F - 71.6 °F 89% 30.19 in 7.0 mi SSW 11.5 mph - 0.03 in Thunderstorm Mostly Cloudy
5:41 PM 75.2 °F - 71.6 °F 89% 30.19 in 1.8 mi SSW 5.8 mph - 0.12 in Rain , Thunderstorm Heavy Thunderstorms and Rain
5:53 PM 73.9 °F - 71.1 °F 91% 30.17 in 1.0 mi SW 8.1 mph - 0.29 in Rain , Thunderstorm Heavy Thunderstorms and Rain
6:01 PM 73.4 °F - 69.8 °F 88% 30.19 in 5.0 mi SW 11.5 mph - 0.00 in Rain , Thunderstorm Light Thunderstorms and Rain
6:14 PM 73.4 °F - 69.8 °F 88% 30.18 in 3.0 mi WSW 9.2 mph - 0.04 in Rain , Thunderstorm Heavy Thunderstorms and Rain
6:46 PM 71.6 °F - 69.8 °F 94% 30.20 in 10.0 mi WSW 5.8 mph - 0.05 in Thunderstorm Overcast
6:53 PM 72.0 °F - 69.1 °F 91% 30.19 in 1.2 mi West 6.9 mph - 0.18 in Rain , Thunderstorm Heavy Rain
6:56 PM 71.6 °F - 68.0 °F 88% 30.21 in 0.8 mi WSW 5.8 mph - 0.03 in Rain , Thunderstorm Heavy Rain
7:03 PM 71.6 °F - 68.0 °F 88% 30.20 in 2.5 mi West 3.5 mph - 0.03 in Rain , Thunderstorm Light Rain
7:10 PM 71.6 °F - 69.8 °F 94% 30.21 in 10.0 mi South 5.8 mph - 0.03 in Thunderstorm Thunderstorm
7:17 PM 71.6 °F - 68.0 °F 88% 30.21 in 10.0 mi SW 4.6 mph - 0.03 in Thunderstorm Thunderstorm
7:26 PM 71.6 °F - 68.0 °F 88% 30.21 in 10.0 mi WSW 4.6 mph - 0.03 in   Mostly Cloudy
7:53 PM 71.1 °F - 68.0 °F 90% 30.18 in 9.0 mi Calm Calm - 0.04 in Rain Light Rain
8:18 PM 71.6 °F - 68.0 °F 88% 30.20 in 2.5 mi Calm Calm - 0.06 in Rain Heavy Rain
8:27 PM 71.6 °F - 68.0 °F 88% 30.20 in 3.0 mi Calm Calm - 0.07 in Rain Light Rain
8:53 PM 71.1 °F - 68.0 °F 90% 30.19 in 9.0 mi SW 6.9 mph - 0.10 in Rain Light Rain
9:00 PM 71.6 °F - 69.8 °F 94% 30.22 in 10.0 mi SSW 4.6 mph - 0.00 in Rain Light Rain
9:11 PM 71.6 °F - 69.8 °F 94% 30.21 in 10.0 mi WSW 3.5 mph - 0.01 in Rain Light Rain
9:20 PM 71.6 °F - 69.8 °F 94% 30.21 in 10.0 mi West 4.6 mph - 0.01 in   Mostly Cloudy
9:53 PM 71.1 °F - 68.0 °F 90% 30.19 in 10.0 mi Calm Calm - 0.01 in   Scattered Clouds
10:32 PM 73.4 °F - 69.8 °F 88% 30.23 in 4.0 mi ENE 3.5 mph - N/A   Mostly Cloudy
10:53 PM 71.1 °F - 69.1 °F 93% 30.20 in 4.0 mi ENE 4.6 mph - N/A   Overcast
11:06 PM 71.6 °F - 69.8 °F 94% 30.22 in 4.0 mi NE 4.6 mph - N/A   Mostly Cloudy
11:14 PM 69.8 °F - 68.0 °F 94% 30.22 in 4.0 mi Calm Calm - N/A   Mostly Cloudy
11:17 PM 71.6 °F - 69.8 °F 94% 30.22 in 4.0 mi East 3.5 mph - N/A   Mostly Cloudy
11:33 PM 71.6 °F - 69.8 °F 94% 30.23 in 2.5 mi East 3.5 mph - N/A   Mostly Cloudy
11:47 PM 71.6 °F - 69.8 °F 94% 30.24 in 3.0 mi Calm Calm - N/A   Overcast
11:53 PM 71.1 °F - 68.0 °F 90% 30.22 in 3.0 mi Calm Calm - N/A   Overcast